Weather History for Midland, MI

Change the Weather History Date:

Monday, February 25, 2013

  Actual Average (KMBS) Record (KMBS)
Temperature  
Mean Temperature 32 °F 27 °F  
Max Temperature 36 °F 35 °F 48 °F (2001)
Min Temperature 27 °F 19 °F -2 °F (2003)
Degree Days  
Heating Degree Days 34    
Month to date heating degree days  
Since 1 July heating degree days  
Cooling Degree Days 0    
Month to date cooling degree days  
Year to date cooling degree days  
Moisture  
Dew Point 24 °F    
Average Humidity 74    
Maximum Humidity 86    
Minimum Humidity 58    
Precipitation  
Precipitation 0.00 in 0.08 in 0.20 in (1999)
Month to date precipitation 1.40  
Year to date precipitation 3.11  
Snow  
Snow 0.00 in - - ()
Month to date snowfall  
Since 1 July snowfall  
Snow Depth -    
Sea Level Pressure  
Sea Level Pressure 30.15 in    
Wind  
Wind Speed 1 mph (SE)    
Max Wind Speed 8 mph    
Max Gust Speed -    
Visibility 10 miles    
Events      
T = Trace of Precipitation, MM = Missing Value Source: NWS Daily Summary

Daily Weather History Graph

Daily Weather History Graph

Search for Another Location

Airport:

Trip Planner

Search our weather history database for the weather conditions in past years. The results will help you decide how hot, cold, wet, or windy it might be!

Date:

Astronomy

Feb. 25, 2013 Rise Set
Actual Time 7:19 AM EST 6:20 PM EST
Civil Twilight 6:50 AM EST 6:49 PM EST
Nautical Twilight 6:17 AM EST 7:23 PM EST
Astronomical Twilight 5:44 AM EST 7:56 PM EST
Moon 6:35 PM EST (2/25) 6:48 AM EST (2/25)
Length of Visible Light 11h 58m
Length of Day
11h 01m
Full, 100% of the Moon is Illuminated
Feb 25
Full
Feb 25
Full
Mar 4
Last Quarter
Mar 11
New
Mar 19
First Quarter

Hourly Weather History & Observations

Time (EST) Temp. Windchill Dew Point Humidity Pressure Visibility Wind Dir Wind Speed Gust Speed Precip Events Conditions
12:13 AM 29.8 °F - 23.7 °F 78% 30.12 in 10.0 mi Calm Calm - N/A   Overcast
12:34 AM 29.1 °F - 23.9 °F 81% 30.12 in 10.0 mi Calm Calm - N/A   Overcast
12:54 AM 28.4 °F - 24.8 °F 86% 30.13 in 10.0 mi Calm Calm - N/A   Overcast
1:13 AM 29.7 °F - 23.9 °F 79% 30.13 in 10.0 mi Calm Calm - N/A   Overcast
1:34 AM 29.3 °F - 24.6 °F 83% 30.14 in 10.0 mi Calm Calm - N/A   Overcast
1:54 AM 29.5 °F - 24.4 °F 81% 30.14 in 10.0 mi Calm Calm - N/A   Overcast
2:13 AM 30.2 °F - 24.1 °F 78% 30.15 in 10.0 mi Calm Calm - N/A   Overcast
2:34 AM 29.5 °F - 24.6 °F 82% 30.15 in 10.0 mi Calm Calm - N/A   Overcast
2:54 AM 29.8 °F - 24.3 °F 80% 30.15 in 10.0 mi Calm Calm - N/A   Overcast
3:13 AM 30.0 °F - 24.8 °F 81% 30.15 in 10.0 mi Calm Calm - N/A   Overcast
3:34 AM 29.3 °F - 24.8 °F 83% 30.15 in 10.0 mi Calm Calm - N/A   Overcast
3:54 AM 29.3 °F - 25.0 °F 84% 30.14 in 10.0 mi Calm Calm - N/A   Overcast
4:13 AM 28.9 °F - 25.3 °F 86% 30.14 in 10.0 mi Calm Calm - N/A   Overcast
4:34 AM 29.3 °F - 25.0 °F 84% 30.14 in 10.0 mi Calm Calm - N/A   Overcast
4:54 AM 29.1 °F - 24.8 °F 84% 30.14 in 10.0 mi Calm Calm - N/A   Overcast
5:14 AM 29.1 °F - 24.8 °F 84% 30.15 in 10.0 mi Calm Calm - N/A   Overcast
5:34 AM 29.3 °F - 24.8 °F 83% 30.15 in 10.0 mi Calm Calm - N/A   Overcast
5:53 AM 29.1 °F - 24.6 °F 83% 30.15 in 10.0 mi Calm Calm - N/A   Overcast
6:14 AM 28.8 °F - 24.3 °F 83% 30.16 in 10.0 mi Calm Calm - N/A   Overcast
6:34 AM 28.4 °F - 24.8 °F 86% 30.16 in 10.0 mi Calm Calm - N/A   Overcast
7:14 AM 28.4 °F - 23.9 °F 83% 30.17 in 10.0 mi Calm Calm - N/A   Overcast
7:33 AM 29.1 °F - 24.3 °F 82% 30.17 in 10.0 mi Calm Calm - N/A   Overcast
7:54 AM 28.6 °F - 24.6 °F 85% 30.19 in 10.0 mi Calm Calm - N/A   Overcast
8:14 AM 29.8 °F - 24.6 °F 81% 30.19 in 10.0 mi Calm Calm - N/A   Overcast
8:15 AM 29.8 °F - 24.6 °F 81% 30.19 in 10.0 mi Calm Calm - N/A   Overcast
8:54 AM 30.9 °F - 25.3 °F 80% 30.20 in 10.0 mi Calm Calm - N/A   Overcast
9:14 AM 31.6 °F - 25.5 °F 78% 30.20 in 10.0 mi Calm Calm - N/A   Overcast
9:33 AM 31.8 °F - 25.5 °F 78% 30.20 in 10.0 mi Calm Calm - N/A   Overcast
9:54 AM 32.0 °F - 25.5 °F 77% 30.20 in 10.0 mi Calm Calm - N/A   Overcast
10:14 AM 32.4 °F - 26.1 °F 78% 30.19 in 10.0 mi Calm Calm - N/A   Overcast
10:34 AM 33.4 °F - 25.5 °F 73% 30.19 in 10.0 mi Calm Calm - N/A   Overcast
10:54 AM 34.0 °F - 24.8 °F 69% 30.18 in 10.0 mi Calm Calm - N/A   Overcast
11:14 AM 34.9 °F 29.0 °F 24.1 °F 65% 30.17 in 10.0 mi SSE 6.9 mph - N/A   Overcast
11:34 AM 34.9 °F 29.0 °F 23.7 °F 64% 30.20 in 10.0 mi SSW 6.9 mph - N/A   Overcast
11:54 AM 34.9 °F 29.0 °F 23.0 °F 62% 30.19 in 10.0 mi SSE 6.9 mph - N/A   Overcast
12:14 PM 35.1 °F 29.3 °F 22.8 °F 61% 30.19 in 10.0 mi SSE 6.9 mph - N/A   Overcast
12:34 PM 35.6 °F 32.8 °F 22.8 °F 60% 30.18 in 10.0 mi South 3.5 mph - N/A   Overcast
12:54 PM 35.6 °F 30.7 °F 22.6 °F 59% 30.18 in 10.0 mi SSE 5.8 mph - N/A   Overcast
1:14 PM 35.6 °F 29.9 °F 22.8 °F 60% 30.17 in 10.0 mi South 6.9 mph - N/A   Overcast
1:34 PM 35.6 °F 29.2 °F 23.9 °F 62% 30.17 in 10.0 mi South 8.1 mph - N/A   Overcast
1:54 PM 35.6 °F 30.7 °F 23.7 °F 62% 30.16 in 10.0 mi SSE 5.8 mph - N/A   Overcast
2:14 PM 35.6 °F - 23.2 °F 61% 30.15 in 10.0 mi Calm Calm - N/A   Overcast
2:34 PM 36.0 °F - 23.4 °F 60% 30.15 in 10.0 mi Calm Calm - N/A   Overcast
2:54 PM 36.0 °F 32.1 °F 23.5 °F 61% 30.16 in 10.0 mi South 4.6 mph - N/A   Overcast
3:14 PM 36.7 °F 34.1 °F 23.2 °F 58% 30.15 in 10.0 mi South 3.5 mph - N/A   Overcast
3:34 PM 36.5 °F 31.8 °F 24.1 °F 61% 30.15 in 10.0 mi SSW 5.8 mph - N/A   Overcast
3:54 PM 36.1 °F 33.5 °F 24.6 °F 63% 30.15 in 10.0 mi SSE 3.5 mph - N/A   Overcast
4:14 PM 36.7 °F - 23.7 °F 59% 30.15 in 10.0 mi Calm Calm - N/A   Overcast
4:34 PM 36.7 °F 34.1 °F 23.7 °F 59% 30.15 in 10.0 mi South 3.5 mph - N/A   Overcast
4:54 PM 36.5 °F 32.7 °F 23.5 °F 59% 30.14 in 10.0 mi SSE 4.6 mph - N/A   Overcast
5:14 PM 36.5 °F 32.7 °F 23.9 °F 60% 30.13 in 10.0 mi ESE 4.6 mph - N/A   Overcast
5:35 PM 35.8 °F 30.9 °F 24.3 °F 63% 30.13 in 10.0 mi ESE 5.8 mph - N/A   Mostly Cloudy
5:54 PM 35.1 °F 29.3 °F 23.9 °F 64% 30.13 in 10.0 mi East 6.9 mph - N/A   Mostly Cloudy
9:14 PM 28.4 °F 23.3 °F 22.1 °F 77% 30.14 in 10.0 mi East 4.6 mph - N/A   Clear
9:15 PM 28.4 °F 23.3 °F 22.1 °F 77% 30.14 in 10.0 mi East 4.6 mph - N/A   Clear
9:34 PM 28.4 °F 22.2 °F 21.7 °F 76% 30.14 in 10.0 mi East 5.8 mph - N/A   Clear
9:54 PM 27.7 °F 22.4 °F 21.4 °F 77% 30.13 in 10.0 mi ENE 4.6 mph - N/A   Clear
10:15 PM 27.1 °F 21.8 °F 21.0 °F 78% 30.12 in 10.0 mi ENE 4.6 mph - N/A   Clear
10:34 PM 28.4 °F 23.3 °F 21.7 °F 76% 30.12 in 10.0 mi East 4.6 mph - N/A   Clear
10:54 PM 27.9 °F 24.0 °F 21.2 °F 76% 30.12 in 10.0 mi East 3.5 mph - N/A   Clear
11:15 PM 27.0 °F 20.5 °F 21.0 °F 78% 30.12 in 10.0 mi ENE 5.8 mph - N/A   Clear
11:34 PM 27.1 °F 21.8 °F 21.0 °F 78% 30.12 in 10.0 mi NE 4.6 mph - N/A   Clear
11:54 PM 27.7 °F 23.8 °F 21.0 °F 76% 30.13 in 10.0 mi East 3.5 mph - N/A   Clear